Gunnison, CO

12:49 PM MDT on August 26, 2016 (GMT -0600)
Gunnison County

Weather History for KGUC - July, 2013

Change the Weather History Date:

Tuesday, July 2, 2013

  Actual Average Record
Temperature  
Mean Temperature 65 °F -  
Max Temperature 82 °F 76 °F 89 °F (2002)
Min Temperature 48 °F 42 °F 30 °F (1997)
Growing Degree Days 15 (Base 50)    
Moisture  
Dew Point 38 °F    
Average Humidity 38    
Maximum Humidity 71    
Minimum Humidity 15    
Precipitation  
Precipitation 0.00 in - - ()
Sea Level Pressure  
Sea Level Pressure 30.36 in    
Wind  
Wind Speed 7 mph (North)    
Max Wind Speed 18 mph    
Max Gust Speed 24 mph    
Visibility 10 miles    
Events      
Averages and records for this station are not official NWS values.
T = Trace of Precipitation, MM = Missing Value Source: NWS Daily Summary

Daily Weather History Graph

Daily Weather History Graph

Search for Another Location

Airport or City:

Trip Planner

Search our weather history database for the weather conditions in past years. The results will help you decide how hot, cold, wet, or windy it might be!

Date:

Astronomy

Jul. 02, 2013 Rise Set
Actual Time 5:47 AM MDT 8:35 PM MDT
Civil Twilight 5:16 AM MDT 9:07 PM MDT
Nautical Twilight 4:36 AM MDT 9:46 PM MDT
Astronomical Twilight 3:51 AM MDT 10:31 PM MDT
Moon 1:50 AM MDT (7/2) 3:54 PM MDT (7/2)
Length of Visible Light 15h 51m
Length of Day
14h 47m
Waning Crescent, 26% of the Moon is Illuminated
Jul 2
Waning Crescent
Jul 8
New
Jul 15
First Quarter
Jul 22
Full
Jul 29
Last Quarter

Hourly Weather History & Observations

Time (MDT) Temp. Dew Point Humidity Pressure Visibility Wind Dir Wind Speed Gust Speed Precip Events Conditions
12:15 AM 60.8 °F 42.8 °F 52% 30.43 in 10.0 mi NNW 11.5 mph - N/A   Clear
12:35 AM 62.6 °F 42.8 °F 48% 30.43 in 10.0 mi NNE 9.2 mph - N/A   Clear
12:55 AM 60.8 °F 41.0 °F 48% 30.43 in 10.0 mi North 10.4 mph - N/A   Clear
1:15 AM 60.8 °F 41.0 °F 48% 30.43 in 10.0 mi NNE 4.6 mph - N/A   Clear
1:35 AM 57.2 °F 41.0 °F 55% 30.44 in 10.0 mi North 6.9 mph - N/A   Clear
1:55 AM 57.2 °F 41.0 °F 55% 30.43 in 10.0 mi North 4.6 mph - N/A   Clear
2:15 AM 55.4 °F 39.2 °F 54% 30.43 in 10.0 mi North 5.8 mph - N/A   Clear
2:55 AM 55.4 °F 39.2 °F 54% 30.43 in 10.0 mi North 9.2 mph - N/A   Clear
3:15 AM 53.6 °F 39.2 °F 58% 30.43 in 10.0 mi NNW 5.8 mph - N/A   Clear
3:35 AM 53.6 °F 39.2 °F 58% 30.42 in 10.0 mi North 6.9 mph - N/A   Clear
3:55 AM 53.6 °F 39.2 °F 58% 30.42 in 10.0 mi North 6.9 mph - N/A   Clear
4:15 AM 53.6 °F 39.2 °F 58% 30.43 in 10.0 mi North 5.8 mph - N/A   Clear
4:55 AM 50.0 °F 37.4 °F 62% 30.43 in 10.0 mi Calm Calm - N/A   Clear
5:15 AM 50.0 °F 37.4 °F 62% 30.43 in 10.0 mi NE 4.6 mph - N/A   Scattered Clouds
5:35 AM 48.2 °F 39.2 °F 71% 30.44 in 10.0 mi Calm Calm - N/A   Partly Cloudy
6:15 AM 48.2 °F 39.2 °F 71% 30.45 in 10.0 mi Calm Calm - N/A   Clear
6:35 AM 50.0 °F 39.2 °F 66% 30.45 in 10.0 mi Calm Calm - N/A   Clear
6:55 AM 51.8 °F 39.2 °F 62% 30.44 in 10.0 mi Calm Calm - N/A   Clear
7:15 AM 51.8 °F 39.2 °F 62% 30.45 in 10.0 mi Calm Calm - N/A   Clear
7:35 AM 53.6 °F 39.2 °F 58% 30.45 in 10.0 mi NNE 3.5 mph - N/A   Clear
8:15 AM 55.4 °F 41.0 °F 58% 30.45 in 10.0 mi Calm Calm - N/A   Clear
8:35 AM 57.2 °F 41.0 °F 55% 30.44 in 10.0 mi NNE 3.5 mph - N/A   Clear
9:15 AM 60.8 °F 42.8 °F 52% 30.43 in 10.0 mi SW 4.6 mph - N/A   Clear
9:35 AM 62.6 °F 42.8 °F 48% 30.43 in 10.0 mi WSW 4.6 mph - N/A   Clear
9:55 AM 64.4 °F 42.8 °F 45% 30.42 in 10.0 mi WSW 3.5 mph - N/A   Clear
10:15 AM 66.2 °F 42.8 °F 43% 30.41 in 10.0 mi WSW 5.8 mph - N/A   Clear
10:35 AM 68.0 °F 42.8 °F 40% 30.40 in 10.0 mi WSW 5.8 mph - N/A   Clear
11:15 AM 71.6 °F 39.2 °F 31% 30.38 in 10.0 mi WSW 4.6 mph - N/A   Clear
11:35 AM 73.4 °F 37.4 °F 27% 30.38 in 10.0 mi WSW 5.8 mph - N/A   Clear
11:55 AM 73.4 °F 37.4 °F 27% 30.37 in 10.0 mi WSW 6.9 mph - N/A   Clear
12:15 PM 75.2 °F 37.4 °F 25% 30.36 in 10.0 mi West 10.4 mph - N/A   Clear
12:35 PM 77.0 °F 37.4 °F 24% 30.35 in 10.0 mi SSW 6.9 mph - N/A   Partly Cloudy
12:55 PM 77.0 °F 37.4 °F 24% 30.34 in 10.0 mi SSW 5.8 mph - N/A   Partly Cloudy
1:15 PM 77.0 °F 35.6 °F 22% 30.33 in 10.0 mi WSW 8.1 mph - N/A   Scattered Clouds
1:55 PM 80.6 °F 35.6 °F 20% 30.32 in 10.0 mi North 12.7 mph 19.6 mph N/A   Clear
2:15 PM 80.6 °F 28.4 °F 15% 30.31 in 10.0 mi North 18.4 mph 24.2 mph N/A   Clear
2:35 PM 80.6 °F 30.2 °F 16% 30.31 in 10.0 mi NNW 10.4 mph 23.0 mph N/A   Clear
2:55 PM 80.6 °F 32.0 °F 17% 30.30 in 10.0 mi North 9.2 mph 18.4 mph N/A   Partly Cloudy
3:15 PM 80.6 °F 32.0 °F 17% 30.30 in 10.0 mi North 9.2 mph 23.0 mph N/A   Clear
3:35 PM 80.6 °F 30.2 °F 16% 30.29 in 10.0 mi NW 8.1 mph 20.7 mph N/A   Clear
3:55 PM 80.6 °F 32.0 °F 17% 30.28 in 10.0 mi North 18.4 mph 23.0 mph N/A   Partly Cloudy
4:16 PM 80.6 °F 33.8 °F 18% 30.28 in 10.0 mi NNW 12.7 mph - N/A   Partly Cloudy
4:35 PM 82.4 °F 35.6 °F 19% 30.28 in 10.0 mi NNW 15.0 mph 23.0 mph N/A   Clear
4:55 PM 80.6 °F 33.8 °F 18% 30.28 in 10.0 mi NW 8.1 mph 17.3 mph N/A   Clear
5:15 PM 82.4 °F 33.8 °F 17% 30.27 in 10.0 mi WNW 13.8 mph 23.0 mph N/A   Partly Cloudy
5:35 PM 80.6 °F 35.6 °F 20% 30.27 in 10.0 mi North 6.9 mph 18.4 mph N/A   Mostly Cloudy
5:55 PM 80.6 °F 30.2 °F 16% 30.26 in 10.0 mi NNE 15.0 mph - N/A   Mostly Cloudy
6:15 PM 80.6 °F 37.4 °F 21% 30.26 in 10.0 mi North 10.4 mph 18.4 mph N/A   Partly Cloudy
6:35 PM 78.8 °F 33.8 °F 20% 30.26 in 10.0 mi North 9.2 mph 17.3 mph N/A   Partly Cloudy
6:55 PM 78.8 °F 33.8 °F 20% 30.27 in 10.0 mi North 10.4 mph 16.1 mph N/A   Partly Cloudy
7:15 PM 75.2 °F 35.6 °F 24% 30.27 in 10.0 mi North 12.7 mph - N/A   Clear
7:35 PM 73.4 °F 35.6 °F 25% 30.28 in 10.0 mi North 8.1 mph - N/A   Clear
7:55 PM 73.4 °F 35.6 °F 25% 30.29 in 10.0 mi North 8.1 mph - N/A   Clear
8:15 PM 73.4 °F 35.6 °F 25% 30.29 in 10.0 mi North 9.2 mph - N/A   Clear
8:35 PM 71.6 °F 35.6 °F 27% 30.29 in 10.0 mi NNE 5.8 mph - N/A   Clear
8:55 PM 71.6 °F 35.6 °F 27% 30.29 in 10.0 mi NNE 6.9 mph - N/A   Clear
9:15 PM 66.2 °F 37.4 °F 35% 30.31 in 10.0 mi East 9.2 mph - N/A   Clear
9:35 PM 66.2 °F 39.2 °F 37% 30.31 in 10.0 mi East 11.5 mph 16.1 mph N/A   Clear
9:55 PM 66.2 °F 39.2 °F 37% 30.32 in 10.0 mi NE 8.1 mph - N/A   Clear
10:15 PM 64.4 °F 39.2 °F 40% 30.32 in 10.0 mi ENE 8.1 mph - N/A   Clear
10:35 PM 62.6 °F 39.2 °F 42% 30.33 in 10.0 mi ENE 6.9 mph - N/A   Clear
10:55 PM 62.6 °F 39.2 °F 42% 30.33 in 10.0 mi East 6.9 mph - N/A   Clear
11:15 PM 62.6 °F 39.2 °F 42% 30.33 in 10.0 mi NNW 6.9 mph - N/A   Clear
11:35 PM 60.8 °F 39.2 °F 45% 30.34 in 10.0 mi NNE 5.8 mph - N/A   Clear
11:55 PM 60.8 °F 39.2 °F 45% 30.34 in 10.0 mi NNE 13.8 mph - N/A   Clear